ARIRANG-2 (KOMPSAT-2)

Last updated on Wed Feb 04 2026 00:02:32 GMT+0000 (Coordinated Universal Time)

1 29268U 06031A 26034.59961876 .00000552 00000+0 11234-3 0 9998 2 29268 97.8271 225.5013 0015286 133.7171 319.6797 14.64556090 41924
UTC large
Height (km)
Speed (km/s)
/
Latitude / Longitude
Inclination (degrees)
Orbital Period (minutes)
Azimuth
Elevation
Range (km)
Doppler Factor

Next 0 passes for location: London (51.5072 / 0.1276)

Sorry there are no passes over London.